Terminal Aerodrome Forecast
Issued by NWS La Crosse, WI

Home | Current Version | Previous Version | Text Only | Print | Product List | Glossary On
Versions: 1 2 3 4 5 6 7 8 9 10 11 12 13 14 15 16 17 18 19 20 21 22 23 24 25 26 27 28 29 30 31 32 33 34 35 36 37 38 39 40 41 42 43 44 45 46
000
FTUS43 KARX 292219 AAD
TAFRST
TAF AMD
KRST 292219Z 2922/3018 VRB05KT P6SM VCTS BKN015CB
      TEMPO 2922/2923 3SM TSRA BKN005CB
     FM292300 36008KT P6SM -SHRA BKN025
     FM300200 36013KT P6SM OVC015
     FM300600 01016G23KT P6SM OVC015=

USA.gov is the U.S. government's official web portal to all federal, state and local government web resources and services.